Regional Weather Roundup
Issued by NWS

Home | Current Version | Previous Version | Text Only | Print | Product List | Glossary On
Versions: 1 2 3 4 5 6 7 8 9 10 11 12 13 14 15 16 17 18 19 20 21 22 23 24 25 26 27 28 29 30 31 32 33 34 35 36 37 38 39 40 41 42 43 44 45 46 47 48 49 50
000
ASUS44 KFWD 010315
RWRTX
NORTH TEXAS HOURLY WEATHER ROUNDUP
NATIONAL WEATHER SERVICE FORT WORTH TX
1000 PM CDT TUE MAR 31 2015

NOTE: "FAIR" INDICATES FEW OR NO CLOUDS BELOW 12,000 FEET WITH NO
SIGNIFICANT WEATHER AND/OR OBSTRUCTIONS TO VISIBILITY.

TXZ118-119-010400-
DALLAS/FORT WORTH METROPLEX

CITY           SKY/WX    TMP DP  RH WIND       PRES   REMARKS
DFW AIRPORT    CLOUDY    73  60  63 S15       29.87F
DALLAS LOVE    CLOUDY    74  60  61 S16       29.89S
FTW MEACHAM    CLOUDY    73  60  63 S15       29.87F
DAL-EXECUTIVE  CLOUDY    72  60  66 S10G18    29.89F
FTW-ALLIANCE   MOCLDY    72  59  63 S14G23    29.87S
FTW-NAS-JRB    CLOUDY    75  61  61 S17       29.91F
FTW-SPINKS     MOCLDY    71  60  67 S10       29.90F
ARLINGTON      MOCLDY    74  59  59 S12       29.89F
ADDISON        CLEAR     73  59  60 S12G23    29.89F
MESQUITE       CLOUDY    71  59  65 S10       29.91S
LANCASTER      MOCLDY    70  58  66 S7        29.92S
$$

TXZ091>094-102>105-117-120-121-131>134-010400-
NORTH CENTRAL TEXAS

CITY           SKY/WX    TMP DP  RH WIND       PRES   REMARKS
SHRMAN/DENISON PTCLDY    73  64  72 SE13      29.90R
GAINESVILLE    PTCLDY    71  60  67 SE12G18   29.89R
BOWIE          PTCLDY    73  60  63 SE8       29.87R
BRIDGEPORT     PTCLDY    73  62  66 SE14      29.88R
DECATUR        PTCLDY    72  59  64 SE13      29.88R
DENTON         PTCLDY    72  61  68 S13       29.88R
MCKINNEY       PTCLDY    72  60  66 S13       29.89F
GREENVILLE     PTCLDY    70  57  64 S10       29.91F
TERRELL        MOCLDY    70  60  70 S8        29.92S
WAXAHACHIE     MOCLDY    68  61  77 S7        29.92S
CLEBURNE       MOCLDY    70  64  83 SE13      29.91F
GRANBURY         N/A     74  61  63 SE12      29.89F
$$

TXZ083>090-098>101-113>116-127>130-139>142-154-155-010400-
WESTERN NORTH TEXAS

CITY           SKY/WX    TMP DP  RH WIND       PRES   REMARKS
WICHITA FALLS  CLOUDY    76  60  57 SE13      29.84R
WF-KICKAPOO    CLOUDY    77  61  57 SE9       29.87R
ABILENE        CLOUDY    74  45  35 S10       29.89F
ABILENE-DYESS  CLOUDY    67  56  68 S7        29.87S
BRECKENRIDGE   CLOUDY    78  55  45 S10G17    29.85R
GRAHAM         PTCLDY    75  59  57 SE8       29.84R
MINERAL WELLS  MOCLDY    73  60  63 SE14      29.85S
STEPHENVILLE   MOCLDY    71  57  61 S7        29.92F
COMANCHE       MOCLDY    71  59  65 S12G18    29.90S
BROWNWOOD      MOCLDY    72  57  60 S12G18    29.90S
COLEMAN        MOCLDY    73  60  63 S9        29.91R
BRADY          CLEAR     70  59  68 SE8       29.94R
$$

TXZ143>147-156>162-174-175-010400-
CENTRAL TEXAS

CITY           SKY/WX    TMP DP  RH WIND       PRES   REMARKS
WACO           PTCLDY    69  61  75 S12       29.92R
WACO-MCGREGOR  PTCLDY    72  57  60 S10       29.93S
HILLSBORO      CLEAR     69  60  74 SE9       29.92S
CORSICANA      PTCLDY    67  60  78 SE8       29.94S
MEXIA          CLEAR     67  61  79 S7        29.93S
HEARNE         MOCLDY    71  64  77 SE8       29.96R
CAMERON        MOCLDY    70  63  77 CALM      29.94S
TEMPLE         MOCLDY    70  57  64 S9        29.93S
KILLEEN        MOCLDY    70  61  72 S10       29.94R
KILLEEN-SKYLRK MOCLDY    72  57  60 MISG      29.94R
FORT HOOD      MOCLDY    71  61  70 S10       29.93R
GATESVILLE     PTCLDY    72  61  68 S8        29.95R
HAMILTON       MOCLDY    72  60  65 S14G22    29.92S
LAMPASAS       PTCLDY    71  63  76 S7        29.94R
$$

TXZ095>097-106>112-122>126-135>138-148>153-164>167-010400-
EAST TEXAS

CITY           SKY/WX    TMP DP  RH WIND       PRES   REMARKS
SULPHUR SPRNGS CLEAR     70  62  77 S6        29.95S
MOUNT PLEASANT CLEAR     67  64  91 E3        29.96R
GILMER         CLEAR     64  62  91 CALM      29.95R
MINEOLA        CLEAR     72  61  68 S5        29.95R
TYLER          PTCLDY    71  58  63 S9        29.94S
LONGVIEW       CLEAR     66  59  78 S3        29.95R
MARSHALL         N/A     66  62  89 CALM      29.98S
ATHENS         PTCLDY    66  59  77 S3        29.94S
PALESTINE      MOCLDY    67  58  72 CALM      29.96S
JACKSONVILLE   MOCLDY    69  59  69 S5        29.98S
HENDERSON      CLEAR     69  58  67 CALM      29.97R
NACOGDOCHES    PTCLDY    63  57  82 SE3       29.98R
LUFKIN         PTCLDY    68  61  78 S7        29.97R
$$

SUPPLEMENTAL OBSERVATIONS (CENTRAL)

CITY           SKY/WX    TMP DP  RH WIND       PRES   REMARKS
LAKE TEXOMA      N/A    N/A N/A N/A SE10        N/A
PAT MAYSE LAKE   N/A     72  64  78 SE9         N/A
GREENVILLE       N/A     70  59  68 S3          N/A
CEDAR HILL       N/A     72  59  64 SE13        N/A
ATHENS           N/A     72  59  64 S7          N/A
LAKE LIMESTONE   N/A     68  61  77 SE2         N/A
MCGREGOR         N/A    N/A N/A N/A S12         N/A
TEMPLE           N/A     70  63  78 S8          N/A
$$

SUPPLEMENTAL OBSERVATIONS (WEST)

CITY           SKY/WX    TMP DP  RH WIND       PRES   REMARKS
MILLERS CREEK    N/A     72  55  56 S7G16       N/A
POSSUM KINGDOM   N/A     73  54  49 SE7         N/A
GRANBURY         N/A     73  59  60 SE13        N/A
COMANCHE         N/A     72  57  60 S12         N/A
HAMBY            N/A     73  45  35 S10         N/A
IVIE RESERVOIR   N/A     73  59  60 S9          N/A
COLORADO BEND    N/A     68  59  73 S8          N/A
$$

SUPPLEMENTAL OBSERVATIONS (EAST)

CITY           SKY/WX    TMP DP  RH WIND       PRES   REMARKS
CLARKSVILLE      N/A     70  68  94 SE5         N/A
TEXARKANA        N/A     61  59  94 CALM        N/A
LINDEN           N/A     64  63  94 SE1         N/A
CADDO LAKE       N/A    N/A N/A N/A CALM        N/A
GILMER           N/A     63  57  82 CALM        N/A
HENDERSON        N/A     70  57  64 S6          N/A
LUFKIN           N/A     70  63  78 MISG        N/A
N SABINE NF      N/A     64  57  77 MISG        N/A
S SABINE NF      N/A     66  61  82 CALM        N/A
$$

SUPPLEMENTAL OBSERVATIONS ARE A COLLECTION OF AUTOMATED INSTRUMENTS
THAT ARE MAINTAINED BY A VARIETY OF FEDERAL AND STATE AGENCIES.
CERTAIN ELEMENTS...SUCH AS HUMIDITY VALUES AND SUSTAINED WIND
SPEEDS...MAY BE APPROXIMATED.



USA.gov is the U.S. government's official web portal to all federal, state and local government web resources and services.